Fort Morgan, CO

11:42 PM MDT on May 29, 2017 (GMT -0600)
Fort Morgan

Weather History for KFMM - April, 2013

Change the Weather History Date:

Monday, April 29, 2013

  Actual Average (KAKO) Record (KAKO)
Temperature  
Mean Temperature 62 °F -  
Max Temperature 81 °F 63 °F 84 °F (1987)
Min Temperature 44 °F 37 °F 21 °F (1950)
Degree Days  
Heating Degree Days 2    
Growing Degree Days 12 (Base 50)    
Moisture  
Dew Point 32 °F    
Average Humidity 37    
Maximum Humidity 81    
Minimum Humidity 11    
Precipitation  
Precipitation 0.00 in - - ()
Sea Level Pressure  
Sea Level Pressure 29.76 in    
Wind  
Wind Speed 9 mph (SSW)    
Max Wind Speed 18 mph    
Max Gust Speed 29 mph    
Visibility 10 miles    
Events Rain    
Averages and records for this station are not official NWS values.
T = Trace of Precipitation, MM = Missing Value Source: NWS Daily Summary

Daily Weather History Graph

Daily Weather History Graph

Search for Another Location

Airport or City:

Trip Planner

Search our weather history database for the weather conditions in past years. The results will help you decide how hot, cold, wet, or windy it might be!

Date:

Astronomy

Apr. 29, 2013 Rise Set
Actual Time 5:56 AM MDT 7:48 PM MDT
Civil Twilight 5:27 AM MDT 8:18 PM MDT
Nautical Twilight 4:51 AM MDT 8:54 PM MDT
Astronomical Twilight 4:13 AM MDT 9:32 PM MDT
Moon No Moon Rise 9:19 AM MDT (4/29)
Length of Visible Light 14h 50m
Length of Day
13h 52m
Waning Gibbous, 79% of the Moon is Illuminated
Apr 29
Waning Gibbous
May 2
Last Quarter
May 9
New
May 17
First Quarter
May 24
Full

Hourly Weather History & Observations

Time (MDT) Temp. Windchill Dew Point Humidity Pressure Visibility Wind Dir Wind Speed Gust Speed Precip Events Conditions
12:15 AM 58.1 °F - 33.4 °F 39% 29.96 in 10.0 mi East 11.5 mph - N/A   Overcast
12:35 AM 56.3 °F - 32.7 °F 41% 29.96 in 10.0 mi East 10.4 mph - N/A   Overcast
12:55 AM 56.7 °F - 32.0 °F 39% 29.96 in 10.0 mi ESE 8.1 mph - N/A   Overcast
1:15 AM 55.4 °F - 32.9 °F 43% 29.97 in 10.0 mi ESE 3.5 mph - N/A   Overcast
1:35 AM 54.5 °F - 34.0 °F 46% 29.97 in 10.0 mi East 6.9 mph - N/A Rain Light Rain
1:55 AM 52.7 °F - 36.5 °F 54% 29.97 in 10.0 mi NE 3.5 mph - N/A   Light Drizzle
2:15 AM 51.3 °F - 39.2 °F 63% 29.98 in 10.0 mi North 5.8 mph - N/A Rain Light Rain
2:35 AM 48.9 °F - 41.9 °F 77% 29.96 in 10.0 mi NE 9.2 mph - N/A Rain Light Rain
2:55 AM 47.5 °F - 41.4 °F 79% 29.94 in 10.0 mi NE 6.9 mph - N/A   Clear
3:15 AM 46.8 °F - 41.4 °F 81% 29.92 in 10.0 mi ENE 8.1 mph - N/A   Scattered Clouds
3:35 AM 47.5 °F - 41.4 °F 79% 29.91 in 10.0 mi East 8.1 mph - N/A   Scattered Clouds
3:55 AM 47.5 °F - 41.0 °F 78% 29.89 in 10.0 mi SE 8.1 mph - N/A   Clear
4:15 AM 46.8 °F - 40.5 °F 79% 29.88 in 10.0 mi South 10.4 mph - N/A   Scattered Clouds
4:35 AM 46.8 °F - 41.2 °F 81% 29.87 in 10.0 mi South 10.4 mph - N/A   Scattered Clouds
4:55 AM 45.7 °F 42.7 °F 37.8 °F 74% 29.87 in 10.0 mi South 5.8 mph - N/A   Clear
5:15 AM 45.0 °F 41.2 °F 36.0 °F 71% 29.87 in 10.0 mi South 6.9 mph - N/A   Clear
5:35 AM 45.1 °F 42.0 °F 35.1 °F 68% 29.87 in 10.0 mi South 5.8 mph - N/A   Clear
5:55 AM 45.1 °F 43.7 °F 34.5 °F 66% 29.86 in 10.0 mi South 3.5 mph - N/A   Clear
6:15 AM 44.1 °F 41.5 °F 34.9 °F 70% 29.87 in 10.0 mi South 4.6 mph - N/A   Clear
6:35 AM 45.9 °F 40.8 °F 35.4 °F 67% 29.87 in 10.0 mi South 10.4 mph - N/A   Clear
6:55 AM 46.8 °F - 37.0 °F 69% 29.87 in 10.0 mi SW 6.9 mph - N/A   Clear
7:15 AM 48.0 °F - 37.8 °F 68% 29.87 in 10.0 mi SSW 6.9 mph - N/A   Clear
7:35 AM 50.7 °F - 37.2 °F 60% 29.85 in 10.0 mi SSW 9.2 mph - N/A   Clear
7:55 AM 53.1 °F - 37.2 °F 55% 29.85 in 10.0 mi SSW 10.4 mph - N/A   Clear
8:15 AM 56.3 °F - 37.2 °F 49% 29.84 in 10.0 mi South 13.8 mph - N/A   Clear
8:35 AM 58.6 °F - 35.8 °F 42% 29.84 in 10.0 mi South 13.8 mph - N/A   Clear
8:55 AM 60.4 °F - 35.6 °F 40% 29.83 in 10.0 mi South 16.1 mph - N/A   Clear
9:15 AM 62.6 °F - 35.1 °F 36% 29.82 in 10.0 mi SSE 16.1 mph - N/A   Clear
9:35 AM 65.3 °F - 34.9 °F 32% 29.82 in 10.0 mi SSE 16.1 mph - N/A   Clear
9:55 AM 67.8 °F - 35.6 °F 30% 29.80 in 10.0 mi SSE 18.4 mph 21.9 mph N/A   Clear
10:15 AM 69.3 °F - 35.1 °F 28% 29.80 in 10.0 mi SSE 11.5 mph 23.0 mph N/A   Clear
10:35 AM 72.9 °F - 34.5 °F 25% 29.79 in 10.0 mi South 15.0 mph 19.6 mph N/A   Clear
10:55 AM 74.3 °F - 33.3 °F 22% 29.78 in 10.0 mi South 18.4 mph 23.0 mph N/A   Clear
11:15 AM 75.9 °F - 30.6 °F 19% 29.78 in 10.0 mi SSW 15.0 mph 23.0 mph N/A   Clear
11:35 AM 74.8 °F - 29.8 °F 19% 29.77 in 10.0 mi South 16.1 mph 24.2 mph N/A   Clear
11:55 AM 74.7 °F - 27.9 °F 18% 29.76 in 10.0 mi South 8.1 mph 17.3 mph N/A   Clear
12:15 PM 77.4 °F - 28.4 °F 17% 29.74 in 10.0 mi SSW 9.2 mph - N/A   Clear
12:35 PM 79.5 °F - 28.0 °F 15% 29.73 in 10.0 mi South 12.7 mph 19.6 mph N/A   Clear
12:55 PM 79.3 °F - 23.4 °F 13% 29.73 in 10.0 mi WSW 15.0 mph 28.8 mph N/A   Clear
1:15 PM 79.3 °F - 22.3 °F 12% 29.71 in 10.0 mi West 8.1 mph 24.2 mph N/A   Clear
1:35 PM 80.6 °F - 23.0 °F 12% 29.71 in 10.0 mi West 11.5 mph 24.2 mph N/A   Clear
1:55 PM 80.6 °F - 22.5 °F 12% 29.70 in 10.0 mi WSW 6.9 mph 18.4 mph N/A   Clear
2:15 PM 80.8 °F - 23.2 °F 12% 29.69 in 10.0 mi West 5.8 mph 20.7 mph N/A   Clear
2:35 PM 80.8 °F - 22.3 °F 11% 29.69 in 10.0 mi WSW 10.4 mph 20.7 mph N/A   Clear
2:55 PM 80.4 °F - 22.8 °F 12% 29.67 in 10.0 mi WSW 12.7 mph 24.2 mph N/A   Clear
3:15 PM 81.1 °F - 23.9 °F 12% 29.67 in 10.0 mi West 11.5 mph - N/A   Clear
3:35 PM 79.3 °F - 24.1 °F 13% 29.66 in 10.0 mi SW 10.4 mph 20.7 mph N/A   Clear
3:55 PM 81.1 °F - 23.5 °F 12% 29.65 in 10.0 mi WSW 13.8 mph 19.6 mph N/A   Clear
4:15 PM 80.8 °F - 23.9 °F 12% 29.63 in 10.0 mi SW 12.7 mph - N/A   Clear
4:35 PM 79.7 °F - 23.4 °F 12% 29.63 in 10.0 mi SSW 8.1 mph 17.3 mph N/A   Clear
4:55 PM 80.8 °F - 23.9 °F 12% 29.63 in 10.0 mi WSW 6.9 mph - N/A   Clear
5:15 PM 78.8 °F - 24.1 °F 13% 29.62 in 10.0 mi West 9.2 mph - N/A   Clear
5:35 PM 79.0 °F - 23.4 °F 13% 29.61 in 10.0 mi West 4.6 mph - N/A   Clear
5:55 PM 79.3 °F - 23.4 °F 13% 29.61 in 10.0 mi WSW 6.9 mph - N/A   Clear
6:15 PM 75.9 °F - 26.2 °F 16% 29.61 in 10.0 mi WSW 6.9 mph - N/A   Clear
6:35 PM 74.3 °F - 28.8 °F 19% 29.61 in 10.0 mi WSW 3.5 mph - N/A   Clear
6:55 PM 73.6 °F - 27.9 °F 18% 29.60 in 10.0 mi SW 3.5 mph - N/A   Clear
7:15 PM 70.5 °F - 30.2 °F 22% 29.59 in 10.0 mi Calm Calm - N/A   Clear
7:35 PM 70.3 °F - 26.6 °F 20% 29.59 in 10.0 mi Calm Calm - N/A   Clear
7:55 PM 68.7 °F - 26.6 °F 21% 29.60 in 10.0 mi SSE 5.8 mph - N/A   Clear
8:15 PM 66.2 °F - 27.3 °F 23% 29.60 in 10.0 mi Calm Calm - N/A   Clear
8:35 PM 68.0 °F - 26.8 °F 21% 29.60 in 10.0 mi Calm Calm - N/A   Clear
8:55 PM 66.9 °F - 28.0 °F 23% 29.61 in 10.0 mi Calm Calm - N/A   Clear
9:35 PM 62.8 °F - 31.1 °F 30% 29.62 in 10.0 mi West 6.9 mph - N/A   Clear
9:55 PM 60.3 °F - 32.0 °F 34% 29.61 in 10.0 mi SW 8.1 mph - N/A   Clear
10:15 PM 58.5 °F - 33.8 °F 39% 29.61 in 10.0 mi WNW 9.2 mph - N/A   Clear
10:35 PM 58.1 °F - 33.6 °F 40% 29.62 in 10.0 mi SSW 5.8 mph - N/A   Clear
10:55 PM 59.2 °F - 33.6 °F 38% 29.61 in 10.0 mi West 5.8 mph - N/A   Clear
11:15 PM 56.1 °F - 34.9 °F 45% 29.61 in 10.0 mi Calm Calm - N/A   Clear
11:35 PM 54.3 °F - 34.7 °F 48% 29.61 in 10.0 mi Calm Calm - N/A   Clear
11:55 PM 55.4 °F - 35.2 °F 47% 29.62 in 10.0 mi SW 4.6 mph - N/A   Clear